Regional Weather Roundup
Issued by NWS San Angelo, TX

Home | Current Version | Previous Version | Graphics & Text | Print | Product List | Glossary Off
Versions: 1 2 3 4 5 6 7 8 9 10 11 12 13 14 15 16 17 18 19 20 21 22 23 24 25 26 27 28 29 30 31 32 33 34 35 36 37 38 39 40 41 42 43 44 45 46 47 48 49 50

000
ASUS44 KSJT 211510
RWRSJT
WEST CENTRAL TEXAS REGIONAL WEATHER ROUNDUP
NATIONAL WEATHER SERVICE SAN ANGELO TX
900 AM CST SUN JAN 21 2018

NOTE: "FAIR" INDICATES FEW OR NO CLOUDS BELOW 12,000 FEET WITH NO
SIGNIFICANT WEATHER AND/OR OBSTRUCTIONS TO VISIBILITY.

TXZ049-054-064>066-071>073-076>078-098-099-113-114-127-128-139-140-
154-155-168>170-211600
...LOCATIONS ACROSS WEST CENTRAL TEXAS...

CITY           SKY/WX    TMP DP  RH WIND       PRES   REMARKS
SAN ANGELO     MOSUNNY   61  52  72 SW16G23   29.87R
ABILENE        PTSUNNY   60  54  80 S20G25    29.85R
DYESS AFB      SUNNY     60  54  80 S23G31    29.84R
JUNCTION       CLOUDY    62  57  83 S8        29.89R
SWEETWATER     SUNNY     56  53  87 S21G28    29.86R
BROWNWOOD      NOT AVBL
COLEMAN        CLOUDY    62  55  76 S15G23    29.88R
SONORA         CLOUDY    57  55  94 S10       29.95R
OZONA          CLOUDY    55  52  88 SW12      29.93R FOG
BRADY          NOT AVBL
$$

TEXAS PANHANDLE/OKLAHOMA PANHANDLE

CITY           SKY/WX    TMP DP  RH WIND       PRES   REMARKS
AMARILLO       SUNNY     46  26  45 W12       29.75F
BORGER         CLOUDY    35  23  61 NW10      29.77R WCI  27
CANADIAN       SUNNY     36  25  63 NW7       29.77R WCI  31
DALHART        CLOUDY    30  26  85 NE13      29.74S WCI  20
DUMAS          CLOUDY    30  23  74 N10G17    29.74S WCI  21
GUYMON         NOT AVBL
HEREFORD       SUNNY     44  28  54 MISG      29.77S
PAMPA          CLOUDY    38  21  49 NW12      29.75R WCI  31
PERRYTON       CLOUDY    34  30  87 NW15      29.73R WCI  24
$$

SOUTHERN PANHANDLE/SOUTH PLAINS/ROLLING PLAINS

CITY           SKY/WX    TMP DP  RH WIND       PRES   REMARKS
LUBBOCK        MOSUNNY   42  26  53 W14       29.82R WCI  35
SNYDER         SUNNY     44  44 100 W10       29.87R FOG     WCI  39
CHILDRESS      SUNNY     48  38  68 S15       29.77R
SEMINOLE       SUNNY     49  33  54 W15G22    29.88R
$$

PERMIAN BASIN

CITY           SKY/WX    TMP DP  RH WIND       PRES   REMARKS
MIDLAND        SUNNY     46  41  82 W5        29.88R HAZE
ODESSA         SUNNY     44  40  85 W12       29.89R WCI  38
WINK           SUNNY     43  36  76 W10G20    29.90R WCI  37
$$

FAR WEST/SOUTHWEST MOUNTAINS/TRANS PECOS

CITY           SKY/WX    TMP DP  RH WIND       PRES   REMARKS
ALPINE         SUNNY     55  21  26 SW12      29.99R
DRYDEN           N/A    N/A N/A N/A N3        29.90R
EL PASO        PTCLDY    42  20  41 W25G38    30.01R WCI  32
FORT STOCKTON  SUNNY     53  25  33 NW9       29.93R
GUADALUPE PASS PTSUNNY   38  18  44 W48G59    29.88F WCI  23
MARFA          SUNNY     47  23  38 W13       29.99R
PECOS          SUNNY     51  32  47 W15       29.94R
$$

DALLAS/FORT WORTH METROPLEX

CITY           SKY/WX    TMP DP  RH WIND       PRES   REMARKS
DFW AIRPORT    PTSUNNY   69  61  75 S17G24    29.87S
FTW MEACHAM    MOSUNNY   66  61  84 S13       29.87S
DAL-EXECUTIVE  CLOUDY    66  62  87 S15G21    29.89S
GRAND PRAIRIE  PTSUNNY   66  61  82 S9        29.90S
ADDISON        CLOUDY    64  61  88 S12G21    29.90S
MESQUITE       CLOUDY    64  61  88 SE13      29.92R
LANCASTER      CLOUDY    65  61  87 S9        29.92R
$$

NORTH CENTRAL TEXAS

CITY           SKY/WX    TMP DP  RH WIND       PRES   REMARKS
SHRMAN/DENISON MOSUNNY   64  58  82 S20       29.88S
GAINESVILLE    CLOUDY    61  56  85 S12G18    29.87S
BRIDGEPORT     PTSUNNY   63  57  80 S15G21    29.86S
DENTON         CLOUDY    63  60  90 S14       29.87S
WAXAHACHIE     CLOUDY    64  64  98 S16G23    29.92R
GRANBURY       CLOUDY    65  60  83 SE7       29.89R
$$

WESTERN NORTH TEXAS

CITY           SKY/WX    TMP DP  RH WIND       PRES   REMARKS
WICHITA FALLS  PTSUNNY   53  51  93 S8        29.79S
VERNON         CLOUDY    51  44  77 S9        29.82R
BRECKENRIDGE   PTSUNNY   64  55  72 S24G31    29.82R HAZE
COMANCHE       CLOUDY    62  60  91 S14G23    29.88R
$$

CENTRAL AND SOUTH CENTRAL TEXAS

CITY           SKY/WX    TMP DP  RH WIND       PRES   REMARKS
AUSTIN/BERGSTM CLOUDY    66  66 100 S10       29.92S
WACO           CLOUDY    64  61  90 S13       29.92R
HILLSBORO      NOT AVBL
TEMPLE         CLOUDY    65  64  97 S15       29.92R
KILLEEN-GRAY   CLOUDY    65  61  87 S15G22    29.90R
FORT HOOD      CLOUDY    64  61  88 S16       29.88R
GEORGETOWN     CLOUDY    66  63  90 S14G23    29.94S
LAGO VISTA     CLOUDY    64  63  96 S7        29.94R
SAN MARCOS     CLOUDY    64  63  96 S5        29.94F FOG
NEW BRAUNFELS  CLOUDY    65  63  93 S8        29.93S
RANDOLPH AFB   CLOUDY    64  64  97 S12       29.93S
SAN ANTONIO    CLOUDY    64  62  93 SE8       29.94R
STINSON        CLOUDY    67  64  90 SE7       29.91R
PLEASANTON     NOT AVBL
LA GRANGE      CLOUDY    68  67  96 S10       29.95R
GIDDINGS       CLOUDY    64  62  92 S7        29.96R
$$

EAST TEXAS

CITY           SKY/WX    TMP DP  RH WIND       PRES   REMARKS
PARIS          CLOUDY    63  60  90 SE12      29.94R
CLARKSVILLE    NOT AVBL
TYLER          CLOUDY    67  62  84 S13       29.96R
LONGVIEW       PTSUNNY   65  63  93 S12G20    29.98R
PALESTINE      CLOUDY    66  62  87 SE8       29.98R
NACOGDOCHES    CLOUDY    64  62  93 SE10      30.01R
$$

TEXAS HILL COUNTRY AND EDWARDS PLATEAU

CITY           SKY/WX    TMP DP  RH WIND       PRES   REMARKS
LLANO          CLOUDY    66  59  77 S12       29.94R
HORSESHOE BAY  CLOUDY    65  61  86 S9G17     29.91S
KERRVILLE      CLOUDY    61  58  90 S12G17    29.93R
FREDERICKSBRG  CLOUDY    63  58  83 S20G32    29.92R
ROCKSPRINGS      N/A     57  57 100 S9        29.96S
HONDO          CLOUDY    66  61  84 S10       29.92S
UVALDE         CLOUDY    60  59  97 SE5       29.92S FOG
DEL RIO        CLOUDY    56  56 100 SE7       29.87F FOG
$$

SOUTHEAST TEXAS

CITY           SKY/WX    TMP DP  RH WIND       PRES   REMARKS
COLLEGE STN    CLOUDY    68  65  90 S14       29.96R
CALDWELL       CLOUDY    67  64  90 S13       29.96R
CROCKETT       LGT RAIN  64  63  94 S8G16     30.02R
BRENHAM        CLOUDY    69  67  93 S14G21    29.98R
HUNTSVILLE     CLOUDY    68  63  84 S9        29.99R
CONROE         CLOUDY    66  65  96 SE12      30.01R
HOUSTON BUSH   CLOUDY    67  65  93 S12       30.01R
HOUSTON HOBBY  PTSUNNY   66  66 100 SE8       30.01R
PERLAND        FAIR      67  66  97 S12       30.02R
WHARTON        MOSUNNY   66  64  93 SE12      29.99R
$$

THE UPPER TEXAS COAST

CITY           SKY/WX    TMP DP  RH WIND       PRES   REMARKS
ORANGE         FOG       63  63 100 SE8       30.08R VSB 3/4
PORT ARTHUR    PTSUNNY   64  62  93 SE8       30.04S
GALVESTON      FAIR      62  62 100 SE15      30.03R FOG
ANGLETON       FAIR      70  65  84 S17       30.00R
BAY CITY       FAIR      68  67  96 S10       29.98S
$$

TEXAS COASTAL BEND, RIO GRANDE PLAINS DEEP SOUTH TEXAS

CITY           SKY/WX    TMP DP  RH WIND       PRES   REMARKS
VICTORIA       CLOUDY    68  65  90 SE13      29.96R
BEEVILLE       CLOUDY    66  65  97 S15       29.93R
ROCKPORT       PTSUNNY   62  62 100 SE10      29.94S FOG
PORT ARANSAS   NOT AVBL
PORT LAVACA    CLOUDY    66  64  94 SE12      29.97R FOG
CORPUS CHRISTI CLOUDY    66  66 100 S17       29.92S
KINGSVILLE NAS CLOUDY    69  66  90 S18G25    29.92R
COTULLA        CLOUDY    61  61 100 SE9       29.89R FOG
LAREDO         CLOUDY    61  60  97 S6        29.89R FOG
BROWNSVILLE    CLOUDY    70  68  93 SE13      29.94F
PORT ISABEL    FAIR      68  66  93 S15G23    29.93F
HEBBRONVILLE   CLOUDY    65  62  90 S16G23    29.91R
MCALLEN        CLOUDY    71  65  81 SE18      29.92R
WESLACO          N/A     68  65  89 S18G24    29.92R FOG
FALFURRIAS     CLOUDY    70  65  83 S18       29.91R
EDINBURG       CLOUDY    71  65  83 S17G24    29.91R
$$




USA.gov is the U.S. government's official web portal to all federal, state and local government web resources and services.